Location: Arborea
(39.7744°N, 8.5819°E)
Time: 23:57:49
(UTC+00:00)

Cosmos 1000 Rocket - Pass Details

Date: 10 October 2023
Orbit: 952 x 993 km, 82.9° (Epoch: 03 December)

Event Time Altitude Azimuth Distance (km) Brightness Sun altitude
Exits shadow 21:24:34 11° 289° (WNW) 2,673 7.2 -49.1°
Maximum altitude 21:25:16 11° 296° (WNW) 2,660 7.2 -49.2°
Drops below altitude 10° 21:27:10 10° 314° (NW) 2,761 7.4 -49.4°
Sets 21:32:02 0° 347° (NNW) 3,711 8.1 -50.0°
